When you browse on this site, cookies collect data to enhance your experience and personalize the content and advertising you see.
Visit our Privacy Policy to learn more. By continuing to use the site, you agree to this use of cookies and data.
  • In Latvia
  • List of Countries
  • For 7 days
  • Water Temperature
  • Satellite Maps
  • Weather Map
  • Weather Widgets
  • user-avatar
    Login

    Hourly Weather Mendoza

    Today, 25 May, Saturday

    Time Temperature Precipitation Wind Pressure Humidity
    00:00 +12°C° 0 mm 1 mps 696 mmHg 26%
    01:00 +12°C° 0 mm 1 mps 695 mmHg 27%
    02:00 +12°C° 0 mm 1 mps 695 mmHg 27%
    03:00 +12°C° 0 mm 1 mps 695 mmHg 28%
    04:00 +12°C° 0 mm 1 mps 695 mmHg 28%
    05:00 +12°C° 0 mm 1 mps 695 mmHg 29%
    06:00 +12°C° 0 mm 1 mps 695 mmHg 30%
    07:00 +12°C° 0 mm 1 mps 695 mmHg 31%
    08:00 +14°C° 0 mm 1 mps 695 mmHg 27%
    09:00 +16°C° 0 mm 1 mps 695 mmHg 24%
    10:00 +19°C° 0 mm 1 mps 695 mmHg 21%
    11:00 +19°C° 0 mm 2 mps 695 mmHg 19%
    12:00 +20°C° 0 mm 2 mps 695 mmHg 17%
    13:00 +20°C° 0 mm 2 mps 694 mmHg 15%
    14:00 +20°C° 0 mm 2 mps 694 mmHg 17%
    15:00 +19°C° 0 mm 2 mps 694 mmHg 19%
    16:00 +20°C° 0 mm 1 mps 694 mmHg 20%
    17:00 +18°C° 0 mm 1 mps 694 mmHg 22%
    18:00 +16°C° 0 mm 1 mps 694 mmHg 24%
    19:00 +14°C° 0 mm 1 mps 695 mmHg 26%
    20:00 +14°C° 0 mm 1 mps 695 mmHg 25%
    21:00 +14°C° 0 mm 1 mps 695 mmHg 25%
    22:00 +14°C° 0 mm 2 mps 695 mmHg 24%
    23:00 +13°C° 0 mm 2 mps 695 mmHg 25%

    Tomorrow, 26 May, Sunday

    Time Temperature Precipitation Wind Pressure Humidity
    00:00 +13°C° 0 mm 2 mps 695 mmHg 25%
    01:00 +12°C° 0 mm 2 mps 695 mmHg 25%
    02:00 +12°C° 0 mm 2 mps 695 mmHg 26%
    03:00 +11°C° 0 mm 3 mps 695 mmHg 27%
    04:00 +11°C° 0 mm 3 mps 695 mmHg 27%
    05:00 +10°C° 0 mm 3 mps 696 mmHg 27%
    06:00 +10°C° 0 mm 3 mps 696 mmHg 27%
    07:00 +10°C° 0 mm 2 mps 697 mmHg 27%
    08:00 +12°C° 0 mm 3 mps 697 mmHg 25%
    09:00 +16°C° 0 mm 3 mps 697 mmHg 23%
    10:00 +18°C° 0 mm 3 mps 698 mmHg 21%
    11:00 +18°C° 0 mm 4 mps 697 mmHg 21%
    12:00 +19°C° 0 mm 4 mps 697 mmHg 21%
    13:00 +19°C° 0 mm 4 mps 697 mmHg 20%
    14:00 +19°C° 0 mm 4 mps 697 mmHg 22%
    15:00 +18°C° 0 mm 4 mps 697 mmHg 23%
    16:00 +18°C° 0 mm 3 mps 697 mmHg 25%
    17:00 +16°C° 0 mm 3 mps 697 mmHg 29%
    18:00 +15°C° 0 mm 2 mps 698 mmHg 33%
    19:00 +13°C° 0 mm 2 mps 698 mmHg 37%
    20:00 +13°C° 0 mm 2 mps 698 mmHg 39%
    21:00 +13°C° 0 mm 2 mps 698 mmHg 40%
    22:00 +12°C° 0 mm 2 mps 699 mmHg 42%
    23:00 +12°C° 0 mm 2 mps 698 mmHg 42%

    Day after tomorrow, 27 May, Monday

    Time Temperature Precipitation Wind Pressure Humidity
    00:00 +10°C° 0 mm 2 mps 698 mmHg 43%
    01:00 +10°C° 0 mm 2 mps 698 mmHg 43%
    02:00 +9°C° 0 mm 2 mps 698 mmHg 43%
    03:00 +9°C° 0 mm 2 mps 697 mmHg 43%
    04:00 +8°C° 0 mm 2 mps 697 mmHg 43%
    05:00 +8°C° 0 mm 2 mps 697 mmHg 43%
    06:00 +9°C° 0 mm 1 mps 697 mmHg 43%
    07:00 +9°C° 0 mm 1 mps 697 mmHg 42%
    08:00 +11°C° 0 mm 1 mps 697 mmHg 38%
    09:00 +13°C° 0 mm 2 mps 697 mmHg 34%
    10:00 +15°C° 0 mm 2 mps 697 mmHg 30%
    11:00 +15°C° 0 mm 2 mps 696 mmHg 30%
    12:00 +16°C° 0 mm 2 mps 695 mmHg 30%
    13:00 +16°C° 0 mm 2 mps 695 mmHg 30%
    14:00 +16°C° 0 mm 2 mps 695 mmHg 31%
    15:00 +16°C° 0 mm 2 mps 695 mmHg 32%
    16:00 +16°C° 0 mm 1 mps 695 mmHg 34%
    17:00 +15°C° 0 mm 1 mps 695 mmHg 36%
    18:00 +14°C° 0 mm 1 mps 695 mmHg 39%
    19:00 +13°C° 0 mm 1 mps 695 mmHg 41%
    20:00 +13°C° 0 mm 1 mps 695 mmHg 41%
    21:00 +12°C° 0 mm 1 mps 695 mmHg 42%
    22:00 +12°C° 0 mm 2 mps 695 mmHg 42%
    23:00 +12°C° 0 mm 2 mps 695 mmHg 42%

    28 May, Tuesday

    Time Temperature Precipitation Wind Pressure Humidity
    00:00 +12°C° 0 mm 2 mps 695 mmHg 42%
    01:00 +12°C° 0 mm 2 mps 695 mmHg 42%
    02:00 +12°C° 0 mm 2 mps 695 mmHg 41%
    03:00 +12°C° 0 mm 2 mps 695 mmHg 40%
    04:00 +12°C° 0 mm 2 mps 695 mmHg 40%
    05:00 +12°C° 0 mm 2 mps 696 mmHg 40%
    06:00 +10°C° 0 mm 2 mps 696 mmHg 41%
    07:00 +10°C° 0 mm 2 mps 696 mmHg 42%
    08:00 +13°C° 0 mm 2 mps 697 mmHg 38%
    09:00 +13°C° 0 mm 3 mps 697 mmHg 33%
    10:00 +16°C° 0 mm 3 mps 698 mmHg 29%
    11:00 +17°C° 0 mm 3 mps 697 mmHg 28%
    12:00 +17°C° 0 mm 3 mps 697 mmHg 26%
    13:00 +18°C° 0 mm 3 mps 697 mmHg 24%
    14:00 +17°C° 0 mm 3 mps 697 mmHg 25%
    15:00 +17°C° 0 mm 2 mps 697 mmHg 25%
    16:00 +17°C° 0 mm 2 mps 697 mmHg 26%
    17:00 +16°C° 0 mm 2 mps 697 mmHg 28%
    18:00 +15°C° 0 mm 1 mps 697 mmHg 30%
    19:00 +14°C° 0 mm 1 mps 697 mmHg 31%
    20:00 +14°C° 0 mm 1 mps 697 mmHg 33%
    21:00 +13°C° 0 mm 1 mps 697 mmHg 34%
    22:00 +13°C° 0 mm 1 mps 697 mmHg 35%
    23:00 +13°C° 0.1 mm 2 mps 696 mmHg 38%

    29 May, Wednesday

    Time Temperature Precipitation Wind Pressure Humidity
    00:00 +12°C° 0.1 mm 2 mps 696 mmHg 42%
    01:00 +11°C° 0.1 mm 3 mps 696 mmHg 45%
    02:00 +11°C° 0.1 mm 3 mps 695 mmHg 49%
    03:00 +10°C° 0.1 mm 3 mps 695 mmHg 53%
    04:00 +8°C° 0.1 mm 4 mps 695 mmHg 57%
    05:00 +9°C° 0.1 mm 3 mps 695 mmHg 58%
    06:00 +9°C° 0.1 mm 3 mps 695 mmHg 60%
    07:00 +9°C° 0.1 mm 3 mps 696 mmHg 62%
    08:00 +10°C° 0.1 mm 3 mps 696 mmHg 61%
    09:00 +11°C° 0.1 mm 3 mps 696 mmHg 60%
    10:00 +11°C° 0.1 mm 3 mps 696 mmHg 59%
    11:00 +13°C° 0 mm 2 mps 696 mmHg 58%
    12:00 +13°C° 0 mm 2 mps 695 mmHg 58%
    13:00 +14°C° 0 mm 2 mps 695 mmHg 57%
    14:00 +14°C° 0 mm 2 mps 695 mmHg 59%
    15:00 +14°C° 0 mm 2 mps 695 mmHg 60%
    16:00 +14°C° 0 mm 2 mps 695 mmHg 62%
    17:00 +13°C° 0 mm 2 mps 696 mmHg 68%
    18:00 +12°C° 0 mm 2 mps 696 mmHg 74%
    19:00 +10°C° 0 mm 2 mps 696 mmHg 79%
    20:00 +10°C° 0 mm 2 mps 697 mmHg 83%
    21:00 +9°C° 0 mm 2 mps 697 mmHg 86%
    22:00 +9°C° 0 mm 2 mps 697 mmHg 89%
    23:00 +9°C° 0 mm 2 mps 697 mmHg 88%

    30 May, Thursday

    Time Temperature Precipitation Wind Pressure Humidity
    00:00 +9°C° 0 mm 2 mps 697 mmHg 87%
    01:00 +8°C° 0 mm 2 mps 697 mmHg 85%
    02:00 +8°C° 0 mm 2 mps 698 mmHg 84%
    03:00 +8°C° 0 mm 2 mps 698 mmHg 82%
    04:00 +8°C° 0 mm 2 mps 698 mmHg 81%
    05:00 +9°C° 0 mm 1 mps 698 mmHg 80%
    06:00 +9°C° 0 mm 1 mps 699 mmHg 80%
    07:00 +9°C° 0 mm 1 mps 699 mmHg 79%
    08:00 +10°C° 0 mm 1 mps 699 mmHg 76%
    09:00 +11°C° 0 mm 1 mps 698 mmHg 72%
    10:00 +12°C° 0 mm 2 mps 698 mmHg 69%
    11:00 +13°C° 0 mm 2 mps 697 mmHg 69%
    12:00 +13°C° 0 mm 2 mps 697 mmHg 68%
    13:00 +13°C° 0 mm 2 mps 696 mmHg 68%
    14:00 +13°C° 0 mm 2 mps 696 mmHg 70%
    15:00 +13°C° 0 mm 2 mps 696 mmHg 73%
    16:00 +12°C° 0 mm 1 mps 696 mmHg 75%
    17:00 +12°C° 0 mm 1 mps 696 mmHg 79%
    18:00 +11°C° 0 mm 1 mps 696 mmHg 82%
    19:00 +10°C° 0 mm 2 mps 697 mmHg 85%
    20:00 +10°C° 0 mm 1 mps 697 mmHg 85%
    21:00 +10°C° 0 mm 1 mps 697 mmHg 84%
    22:00 +9°C° 0 mm 1 mps 697 mmHg 84%
    23:00 +8°C° 0 mm 2 mps 697 mmHg 80%
    Show more